Location: Drawsko Pomorskie
(53.5317°N, 15.8111°E)
Time: 20:09:00
(UTC+01:00)

ISS - Pass Details

Date: 29 January 2019
Orbit: 403 x 411 km, 51.6° (Epoch: 21 February)

Event Time Altitude Azimuth Distance (km) Brightness Sun altitude
Rises 19:52:49 0° 271° (W) 2,341 1.2 -29.5°
Reaches altitude 10° 19:54:55 10° 267° (W) 1,480 -0.1 -29.8°
Enters shadow 19:55:29 14° 266° (W) 1,257 -0.6 -29.9°
